Home   Weather   Sola   Past weeks

Flag for Norway Past Weather in Sola, Norway — Yesterday and Last 2 Weeks

Now
42 °F

Fog.


Feels Like: 39 °F
Forecast: 41 / 43 °F
Wind: 6 mph from South

Location: Stavanger / Sola

Current Time: Jan 24, 2017 at 10:57:44 pm

Latest Report: Jan 24, 2017 at 10:00 pm


Visibility: 2 mi

Pressure: 30.21 "Hg

Humidity: 97%

Dew Point: 42 °F

Location of SolaLocation

Past Weather in Sola — Graph

°F

Sola Temperature Yesterday

Maximum temperature yesterday: 42 °F (at 2:00 pm)
Minimum temperature yesterday: 37 °F (at 6:00 am)
Average temperature yesterday: 39 °F

High & Low Weather Summary for the Past Weeks

 TemperatureHumidityPressure
High45 °F (Jan 19, 1:00 pm)100% (Jan 18, 3:00 am)30.49 "Hg (Jan 18, 3:00 am)
Low15 °F (Jan 16, 4:00 am)52% (Jan 16, 2:00 pm)28.53 "Hg (Jan 11, 9:00 am)
Average37 °F88%29.97 "Hg
* Reported Jan 9 9:00 pm — Jan 24 9:00 pm, Sola, Weather by CustomWeather, © 2017

Note: Actual official high and low records may vary slightly from our data, if they occured in-between our weather recording intervals... More about our weather records

Advertising

Sola Weather History for the Previous 24 Hours

Scroll right to see more
 ConditionsComfort  
Time TempWeatherWind HumidityBarometerVisibility
9:00 pm
Tue, Jan 24
42 °FFog.6 mph97%30.20 "Hg2 mi
8:00 pm42 °FFog.6 mph96%30.20 "Hg2 mi
7:00 pm42 °FOvercast.5 mph92%30.19 "Hg4 mi
6:00 pm42 °FOvercast.6 mph91%30.19 "Hg6 mi
5:00 pm42 °FOvercast.6 mph91%30.20 "Hg6 mi
4:00 pm42 °FOvercast.6 mph90%30.19 "Hg7 mi
3:00 pm42 °FOvercast.5 mph90%30.20 "Hg7 mi
2:00 pm42 °FOvercast.5 mph89%30.21 "Hg9 mi
1:00 pm42 °FOvercast.6 mph88%30.20 "Hg11 mi
12:00 pm41 °FOvercast.5 mph86%30.21 "Hg16 mi
11:00 am40 °FOvercast.5 mph87%30.19 "Hg12 mi
10:00 am39 °FOvercast.3 mph91%30.19 "Hg16 mi
9:00 am38 °FOvercast.3 mph94%30.19 "Hg19 mi
8:00 am37 °FOvercast.3 mph93%30.18 "Hg25 mi
7:00 am37 °FOvercast.3 mph92%30.16 "Hg31 mi
6:00 am36 °FOvercast.5 mph95%30.16 "Hg31 mi
5:00 am34 °FOvercast.3 mph96%30.16 "Hg25 mi
4:00 am35 °FOvercast.2 mph97%30.16 "Hg22 mi
3:00 am35 °FOvercast.1 mph98%30.17 "Hg10 mi
2:00 am34 °FClear.2 mph98%30.17 "Hg6 mi
1:00 am35 °FFog.2 mph97%30.17 "Hg1 mi
12:00 am35 °FClear.2 mph96%30.17 "Hg9 mi
11:00 pm
Mon, Jan 23
37 °FPassing clouds.1 mph96%30.17 "Hg7 mi
10:00 pm38 °FPassing clouds.No wind94%30.16 "Hg19 mi
Weather by CustomWeather, © 2017

See weather overviewHow to use our weather pages